IW5EFR Vecchia di Pontedera IT current weather conditions

sailwx.info

Wind from 190

Air temperature 18.3° C
Dewpoint 14.8° C

Last reported at 2019-Sep-16 22:06 UTC.
Time now 2019-Sep-16 22:38 UTC

Location: N 43°37' E 010°38'.
View on Google Maps.

See reports from other nearby stations

  
Tides and Currents Weather Stations Pressure Air Temp Water Temp Dewpoint Dewpoint Depression Visibility Wind Speed Wind Dir Waves Ship Positions
date/time (UTC)wind fromknots sea level pressurealtimeterstation pressurevisibilityair tempwater tempwave heightnotes
2019-Sep-16 22:06 190 18.3
2019-Sep-16 22:01 190 18.3
2019-Sep-16 21:56 190 18.3
2019-Sep-16 21:51 190 18.3
2019-Sep-16 21:46 191 1 gusting 1 18.3
2019-Sep-16 21:41 192 18.3
2019-Sep-16 21:36 192 18.3
2019-Sep-16 21:31 192 18.9
2019-Sep-16 21:26 192 18.9
2019-Sep-16 21:21 192 18.9
2019-Sep-16 21:16 192 18.9
2019-Sep-16 21:11 192 19.4
2019-Sep-16 21:06 194 19.4
2019-Sep-16 21:01 195 0 gusting 2 19.4
2019-Sep-16 20:56 196 19.4
2019-Sep-16 20:51 197 19.4
2019-Sep-16 20:46 199 0 gusting 1 20.0
2019-Sep-16 20:41 202 0 gusting 0 20.0
2019-Sep-16 20:36 202 1 gusting 0 20.6
2019-Sep-16 20:31 205 20.6
2019-Sep-16 20:26 205 21.1
2019-Sep-16 20:21 205 21.1
2019-Sep-16 20:16 205 0 gusting 1 21.7
2019-Sep-16 20:11 206 21.7
2019-Sep-16 20:06 206 22.2
2019-Sep-16 20:01 206 22.2
2019-Sep-16 19:56 206 0 gusting 4 22.2
2019-Sep-16 19:51 204 22.2
2019-Sep-16 19:46 204 22.2
2019-Sep-16 19:41 236 0 gusting 6 22.8
2019-Sep-16 19:36 218 1 gusting 6 22.8
2019-Sep-16 19:31 224 1 gusting 3 22.8
2019-Sep-16 19:26 224 1 gusting 3 22.8
2019-Sep-16 19:21 225 3 gusting 3 22.8
2019-Sep-16 19:16 231 2 gusting 3 22.8
2019-Sep-16 19:11 257 22.8
2019-Sep-16 19:06 243 0 gusting 3 22.8
2019-Sep-16 19:01 255 1 gusting 5 22.8
2019-Sep-16 18:56 255 0 gusting 5 22.8
2019-Sep-16 18:51 251 0 gusting 5 22.8
2019-Sep-16 18:46 279 2 gusting 5 23.3
2019-Sep-16 18:41 256 0 gusting 4 23.3
2019-Sep-16 18:36 262 2 gusting 4 23.3
2019-Sep-16 18:31 297 1 gusting 3 23.3
2019-Sep-16 18:26 274 2 gusting 3 23.3
2019-Sep-16 18:21 269 0 gusting 4 23.9
2019-Sep-16 18:16 279 2 gusting 4 23.9
2019-Sep-16 18:11 229 0 gusting 3 23.9
2019-Sep-16 18:06 268 2 gusting 3 24.4
2019-Sep-16 18:01 276 0 gusting 5 24.4
2019-Sep-16 17:56 281 2 gusting 5 24.4
2019-Sep-16 17:51 288 2 gusting 6 25.0
2019-Sep-16 17:46 273 25.0
2019-Sep-16 17:41 250 5 gusting 9 25.0
2019-Sep-16 17:36 319 25.6
2019-Sep-16 17:31 254 3 gusting 6 25.6
2019-Sep-16 17:26 274 1 gusting 6 25.6
2019-Sep-16 17:21 287 3 gusting 6 26.1
2019-Sep-16 17:16 302 3 gusting 6 26.1
2019-Sep-16 17:11 254 1 gusting 6 26.1
2019-Sep-16 17:06 316 3 gusting 6 26.7
2019-Sep-16 17:01 292 1 gusting 6 26.7
2019-Sep-16 16:56 321 2 gusting 6 26.7
2019-Sep-16 16:51 338 1 gusting 6 27.2
2019-Sep-16 16:46 279 2 gusting 6 27.2
2019-Sep-16 16:41 302 1 gusting 6 27.8
2019-Sep-16 16:36 273 2 gusting 6 27.8
2019-Sep-16 16:31 306 3 gusting 6 27.8
2019-Sep-16 16:26 271 2 gusting 6 27.8
2019-Sep-16 16:21 253 1 gusting 7 28.3
2019-Sep-16 16:16 274 4 gusting 7 28.3
2019-Sep-16 16:11 294 4 gusting 6 28.3
2019-Sep-16 16:06 291 28.3
2019-Sep-16 16:01 269 2 gusting 7 28.3
2019-Sep-16 15:56 309 2 gusting 7 28.3
2019-Sep-16 15:51 304 2 gusting 8 28.3
2019-Sep-16 15:46 246 5 gusting 8 28.9
2019-Sep-16 15:41 270 6 gusting 8 28.9
2019-Sep-16 15:36 276 2 gusting 8 28.9
2019-Sep-16 15:31 250 5 gusting 10 28.9
2019-Sep-16 15:26 321 3 gusting 10 28.9
2019-Sep-16 15:21 317 2 gusting 7 28.9
2019-Sep-16 15:16 298 4 gusting 7 28.9
2019-Sep-16 15:11 279 0 gusting 9 29.4
2019-Sep-16 15:06 241 6 gusting 9 29.4
2019-Sep-16 15:01 296 4 gusting 8 29.4
2019-Sep-16 14:56 320 3 gusting 8 29.4
2019-Sep-16 14:51 293 1 gusting 8 29.4
2019-Sep-16 14:46 240 2 gusting 8 29.4
2019-Sep-16 14:41 292 5 gusting 10 29.4
2019-Sep-16 14:36 271 4 gusting 10 29.4
2019-Sep-16 14:31 312 3 gusting 13 29.4
2019-Sep-16 14:26 351 5 gusting 13 29.4
2019-Sep-16 14:21 296 2 gusting 13 29.4
2019-Sep-16 14:16 288 6 gusting 13 29.4
2019-Sep-16 14:11 295 6 gusting 11 29.4
2019-Sep-16 14:06 274 4 gusting 11 29.4
2019-Sep-16 14:01 332 5 gusting 10 29.4
2019-Sep-16 13:56 309 3 gusting 10 29.4
2019-Sep-16 13:51 322 6 gusting 8 30.0
2019-Sep-16 13:46 305 4 gusting 8 30.0
2019-Sep-16 13:41 252 3 gusting 7 30.0
2019-Sep-16 13:36 248 6 gusting 7 30.0
2019-Sep-16 13:31 261 3 gusting 8 30.0
2019-Sep-16 13:26 282 5 gusting 8 29.4
2019-Sep-16 13:21 301 1 gusting 11 29.4
2019-Sep-16 13:16 305 2 gusting 11 29.4
2019-Sep-16 13:11 250 4 gusting 10 30.0
2019-Sep-16 13:06 331 3 gusting 10 30.0
2019-Sep-16 13:01 266 9 gusting 11 30.0
2019-Sep-16 12:56 348 3 gusting 11 30.0
2019-Sep-16 12:51 304 6 gusting 8 30.0
2019-Sep-16 12:46 235 5 gusting 8 30.0
2019-Sep-16 12:41 315 3 gusting 8 30.0
2019-Sep-16 12:36 350 3 gusting 8 30.0
2019-Sep-16 12:31 348 6 gusting 10 30.0
2019-Sep-16 12:26 307 3 gusting 10 30.0
2019-Sep-16 12:21 308 1 gusting 6 30.0
2019-Sep-16 12:16 290 6 gusting 6 30.0
2019-Sep-16 12:11 309 2 gusting 8 30.0
2019-Sep-16 12:06 280 1 gusting 8 30.6
2019-Sep-16 12:01 311 5 gusting 6 30.0
2019-Sep-16 11:56 277 4 gusting 6 30.0
2019-Sep-16 11:51 295 2 gusting 6 30.6
2019-Sep-16 11:46 299 1 gusting 6 30.0
2019-Sep-16 11:41 323 1 gusting 7 30.0
2019-Sep-16 11:36 290 2 gusting 7 30.0
2019-Sep-16 11:31 154 2 gusting 7 29.4
2019-Sep-16 11:26 277 2 gusting 7 30.0
2019-Sep-16 11:21 134 3 gusting 6 29.4
2019-Sep-16 11:16 131 29.4
2019-Sep-16 11:11 005 3 gusting 4 28.9
2019-Sep-16 11:06 323 2 gusting 4 28.9
2019-Sep-16 11:01 005 4 gusting 6 29.4
2019-Sep-16 10:56 355 28.9
2019-Sep-16 10:51 005 0 gusting 6 28.9
2019-Sep-16 10:46 318 2 gusting 6 28.3
2019-Sep-16 10:41 334 3 gusting 4 28.3
2019-Sep-16 10:36 005 3 gusting 4 28.3
2019-Sep-16 10:31 349 5 gusting 4 28.3
2019-Sep-16 10:26 348 3 gusting 4 28.3
2019-Sep-16 10:21 348 1 gusting 3 27.8
2019-Sep-16 10:16 257 1 gusting 3 27.8
2019-Sep-16 10:11 273 27.2
2019-Sep-16 10:06 350 27.2
2019-Sep-16 10:01 014 0 gusting 3 27.2
2019-Sep-16 09:56 014 27.2
2019-Sep-16 09:51 014 26.7
2019-Sep-16 09:46 331 0 gusting 4 26.1
2019-Sep-16 09:41 337 0 gusting 4 26.1
2019-Sep-16 09:36 009 0 gusting 4 26.1
2019-Sep-16 09:31 016 1 gusting 5 26.1
2019-Sep-16 09:26 016 25.6
2019-Sep-16 09:21 009 4 gusting 5 25.6
2019-Sep-16 09:16 005 1 gusting 5 25.0
2019-Sep-16 09:11 355 2 gusting 6 25.0
2019-Sep-16 09:06 005 4 gusting 6 25.0
2019-Sep-16 09:01 034 0 gusting 6 24.4
2019-Sep-16 08:56 010 2 gusting 6 24.4
2019-Sep-16 08:51 009 5 gusting 6 23.9
2019-Sep-16 08:46 017 3 gusting 6 23.9
2019-Sep-16 08:41 032 2 gusting 5 23.9
2019-Sep-16 08:36 030 2 gusting 5 23.3
2019-Sep-16 08:31 350 0 gusting 6 23.3
2019-Sep-16 08:26 013 2 gusting 6 22.8
2019-Sep-16 08:21 005 2 gusting 6 22.8
2019-Sep-16 08:16 005 22.2
2019-Sep-16 08:11 355 5 gusting 5 22.2
2019-Sep-16 08:06 049 21.7
2019-Sep-16 08:01 011 3 gusting 4 21.7
2019-Sep-16 07:56 034 0 gusting 4 21.1
2019-Sep-16 07:51 013 4 gusting 5 21.1
2019-Sep-16 07:46 005 2 gusting 5 20.6
2019-Sep-16 07:41 028 1 gusting 6 20.6
2019-Sep-16 07:36 005 3 gusting 6 20.6
2019-Sep-16 07:31 009 3 gusting 3 20.0
2019-Sep-16 07:26 018 2 gusting 3 20.0
2019-Sep-16 07:21 011 2 gusting 2 20.0
2019-Sep-16 07:11 134 19.4
2019-Sep-16 07:06 134 0 gusting 1 18.9
2019-Sep-16 07:01 134 18.9
2019-Sep-16 06:56 134 18.3
2019-Sep-16 06:51 134 17.8
2019-Sep-16 06:46 134 17.2
2019-Sep-16 06:41 134 17.2
2019-Sep-16 06:36 134 16.7
2019-Sep-16 06:31 134 0 gusting 3 16.1
2019-Sep-16 06:26 134 0 gusting 3 16.1
2019-Sep-16 06:21 134 1 gusting 2 15.6
2019-Sep-16 06:16 134 0 gusting 2 15.6
2019-Sep-16 06:11 135 15.6
2019-Sep-16 06:06 138 15.0
2019-Sep-16 06:01 138 2 gusting 1 15.0
2019-Sep-16 05:56 155 15.0
2019-Sep-16 05:51 155 14.4
2019-Sep-16 05:46 155 14.4
2019-Sep-16 05:41 155 0 gusting 5 14.4
2019-Sep-16 05:36 155 14.4
2019-Sep-16 05:31 155 2 gusting 2 13.9
2019-Sep-16 05:26 158 1 gusting 2 13.9
2019-Sep-16 05:21 159 0 gusting 3 13.9
2019-Sep-16 05:16 159 0 gusting 3 13.9
2019-Sep-16 05:11 159 13.9
2019-Sep-16 05:06 159 0 gusting 3 13.9
2019-Sep-16 05:01 160 2 gusting 3 13.9
2019-Sep-16 04:56 161 2 gusting 3 13.9
2019-Sep-16 04:51 161 2 gusting 4 13.9
2019-Sep-16 04:46 161 2 gusting 4 14.4
2019-Sep-16 04:41 161 2 gusting 2 14.4
2019-Sep-16 04:36 147 1 gusting 2 14.4
2019-Sep-16 04:31 147 1 gusting 1 14.4
2019-Sep-16 04:26 147 14.4
2019-Sep-16 04:21 147 14.4
2019-Sep-16 04:16 147 14.4
2019-Sep-16 04:11 147 14.4
2019-Sep-16 04:06 148 2 gusting 3 14.4
2019-Sep-16 04:01 130 0 gusting 3 14.4
2019-Sep-16 03:56 130 14.4
2019-Sep-16 03:51 130 0 14.4
2019-Sep-16 03:46 158 14.4
2019-Sep-16 03:41 158 14.4
2019-Sep-16 03:36 158 15.0
2019-Sep-16 03:31 158 15.0
2019-Sep-16 03:26 158 1 gusting 2 15.0
2019-Sep-16 03:21 158 15.0
2019-Sep-16 03:16 158 1 gusting 2 15.0
2019-Sep-16 03:11 158 15.0
2019-Sep-16 03:06 158 0 gusting 4 15.0
2019-Sep-16 03:01 158 0 15.0
2019-Sep-16 02:56 158 2 15.0
2019-Sep-16 02:51 159 1 15.0
2019-Sep-16 02:46 159 15.0
2019-Sep-16 02:41 143 15.6
2019-Sep-16 02:36 143 15.6
2019-Sep-16 02:31 143 15.6
2019-Sep-16 02:26 143 15.6
2019-Sep-16 02:21 143 15.6
2019-Sep-16 02:16 143 15.6
2019-Sep-16 02:11 143 15.6
2019-Sep-16 02:06 143 15.6
2019-Sep-16 02:01 143 15.6
2019-Sep-16 01:56 143 0 gusting 2 15.6
2019-Sep-16 01:51 143 15.6
2019-Sep-16 01:46 143 0 16.1
2019-Sep-16 01:41 144 16.1
2019-Sep-16 01:36 144 16.1
2019-Sep-16 01:31 144 16.1
2019-Sep-16 01:26 144 16.1
2019-Sep-16 01:21 144 16.1
2019-Sep-16 01:16 144 16.1
2019-Sep-16 01:11 144 0 gusting 2 16.1
2019-Sep-16 01:06 144 1 gusting 2 16.1
2019-Sep-16 01:01 144 1 gusting 2 16.7
2019-Sep-16 00:56 144 0 gusting 2 16.7
2019-Sep-16 00:51 144 0 gusting 3 16.7
2019-Sep-16 00:46 144 1 gusting 3 16.7
2019-Sep-16 00:41 144 0 gusting 3 16.7
2019-Sep-16 00:36 145 16.7
2019-Sep-16 00:31 145 1 gusting 3 16.7
2019-Sep-16 00:26 148 1 gusting 3 16.7
2019-Sep-16 00:21 148 1 gusting 2 16.7
2019-Sep-16 00:16 148 17.2
2019-Sep-16 00:11 148 1 gusting 4 17.2
2019-Sep-16 00:06 148 17.2
2019-Sep-16 00:01 148 0 gusting 3 17.2
2019-Sep-15 23:56 149 3 gusting 3 17.2
2019-Sep-15 23:51 153 3 gusting 3 17.2
2019-Sep-15 23:46 155 1 gusting 3 17.2
2019-Sep-15 23:41 155 17.2
2019-Sep-15 23:36 155 17.2
2019-Sep-15 23:31 154 17.2
2019-Sep-15 23:26 154 17.2
2019-Sep-15 23:21 155 0 gusting 4 17.2
2019-Sep-15 23:16 156 17.8
2019-Sep-15 23:11 156 2 gusting 5 17.8
2019-Sep-15 23:06 156 1 gusting 5 17.8
2019-Sep-15 23:01 156 1 gusting 5 17.8
2019-Sep-15 22:57 157 1 gusting 5 17.8
2019-Sep-15 22:52 159 2 gusting 5 18.3
2019-Sep-15 22:47 162 3 gusting 5 18.3
2019-Sep-15 22:42 148 3 gusting 4 18.3
2019-Sep-15 22:37 170 3 gusting 4 18.3
2019-Sep-15 22:32 167 3 gusting 4 18.3
2019-Sep-15 22:27 168 3 gusting 4 18.3
2019-Sep-15 22:22 153 0 gusting 5 18.3
2019-Sep-15 22:17 153 1 gusting 5 18.3
2019-Sep-15 22:12 152 2 gusting 5 18.3
2019-Sep-15 22:07 151 2 gusting 5 18.9
2019-Sep-15 22:02 147 3 gusting 6 18.9
2019-Sep-15 21:57 155 3 gusting 6 18.9
2019-Sep-15 21:52 150 3 gusting 3 18.9
2019-Sep-15 21:47 153 3 gusting 3 19.4
2019-Sep-15 21:42 158 4 gusting 3 19.4
2019-Sep-15 21:37 159 19.4
2019-Sep-15 21:32 159 2 gusting 6 19.4
2019-Sep-15 21:27 160 1 gusting 6 19.4
2019-Sep-15 21:22 160 0 gusting 6 19.4
2019-Sep-15 21:17 152 2 gusting 6 20.0
2019-Sep-15 21:12 162 4 gusting 4 20.0
2019-Sep-15 21:07 170 4 gusting 4 20.6
2019-Sep-15 21:02 173 1 gusting 3 20.6
2019-Sep-15 20:57 201 0 gusting 3 20.6
2019-Sep-15 20:52 201 1 gusting 2 20.6
2019-Sep-15 20:47 201 20.6
2019-Sep-15 20:42 202 2 gusting 2 21.1
2019-Sep-15 20:37 202 0 gusting 2 21.1
2019-Sep-15 20:32 204 1 gusting 1 21.1
2019-Sep-15 20:27 205 1 gusting 1 21.1
2019-Sep-15 20:22 205 21.7
2019-Sep-15 20:17 205 21.7
2019-Sep-15 20:12 205 21.7
2019-Sep-15 20:07 205 21.7
2019-Sep-15 20:02 206 22.2
2019-Sep-15 19:57 209 22.2
2019-Sep-15 19:52 215 22.8
2019-Sep-15 19:47 218 1 gusting 5 22.8
2019-Sep-15 19:42 219 22.8
2019-Sep-15 19:37 227 22.8
2019-Sep-15 19:32 250 0 gusting 6 23.3
2019-Sep-15 19:27 234 2 gusting 6 23.3
2019-Sep-15 19:22 264 23.3
2019-Sep-15 19:17 240 1 gusting 4 23.3
2019-Sep-15 19:12 245 1 gusting 5 23.3
2019-Sep-15 19:07 213 23.3
2019-Sep-15 19:02 245 23.3
2019-Sep-15 18:57 248 0 gusting 3 23.3
2019-Sep-15 18:52 234 0 gusting 5 23.3
2019-Sep-15 18:47 237 0 gusting 5 23.3
2019-Sep-15 18:42 260 23.9
2019-Sep-15 18:37 235 2 gusting 4 23.9
2019-Sep-15 18:32 263 0 gusting 6 23.9
2019-Sep-15 18:27 248 1 gusting 6 23.9
2019-Sep-15 18:22 244 0 gusting 6 23.9
2019-Sep-15 18:17 244 0 gusting 6 23.9
2019-Sep-15 18:12 242 0 gusting 5 23.9
2019-Sep-15 18:07 271 3 gusting 5 24.4
2019-Sep-15 18:02 274 0 gusting 5 24.4
2019-Sep-15 17:57 249 1 gusting 5 24.4
2019-Sep-15 17:52 244 1 gusting 5 24.4
2019-Sep-15 17:47 264 2 gusting 5 25.0
2019-Sep-15 17:42 232 0 gusting 6 25.0
2019-Sep-15 17:37 261 2 gusting 6 25.0
2019-Sep-15 17:32 273 1 gusting 8 25.0
2019-Sep-15 17:27 281 3 gusting 8 25.6
2019-Sep-15 17:22 260 5 gusting 9 25.6
2019-Sep-15 17:17 278 1 gusting 9 25.6
2019-Sep-15 17:12 267 1 gusting 7 25.6
2019-Sep-15 17:07 247 6 gusting 7 26.1
2019-Sep-15 17:02 241 4 gusting 9 26.7
2019-Sep-15 16:57 232 4 gusting 9 26.7
2019-Sep-15 16:52 259 2 gusting 7 26.7
2019-Sep-15 16:47 292 2 gusting 7 27.2
2019-Sep-15 16:42 264 2 gusting 6 27.2
2019-Sep-15 16:37 254 7 gusting 6 27.2
2019-Sep-15 16:32 240 4 gusting 6 27.2
2019-Sep-15 16:27 236 3 gusting 6 27.8
2019-Sep-15 16:22 288 1 gusting 6 27.8
2019-Sep-15 16:17 317 1 gusting 6 27.8
2019-Sep-15 16:12 305 1 gusting 6 27.8
2019-Sep-15 16:07 292 4 gusting 6 28.3
2019-Sep-15 16:02 271 3 gusting 6 28.3
2019-Sep-15 15:57 318 2 gusting 6 28.3
2019-Sep-15 15:52 285 2 gusting 5 28.3
2019-Sep-15 15:47 327 28.3
2019-Sep-15 15:42 284 2 gusting 7 28.9
2019-Sep-15 15:37 318 0 gusting 7 28.9
2019-Sep-15 15:32 281 28.9
2019-Sep-15 15:27 342 4 gusting 4 29.4
2019-Sep-15 15:22 325 2 gusting 6 30.0
2019-Sep-15 15:17 328 3 gusting 6 30.0
2019-Sep-15 15:12 328 30.0
2019-Sep-15 15:07 328 1 gusting 2 30.0
2019-Sep-15 12:47 012 1 gusting 2 29.4
2019-Sep-15 12:42 005 29.4
2019-Sep-15 12:37 005 0 gusting 0 30.0
2019-Sep-15 12:32 005 29.4
2019-Sep-15 12:27 005 29.4
2019-Sep-15 12:22 005 28.9
2019-Sep-15 12:17 005 28.9
2019-Sep-15 12:12 005 28.9
2019-Sep-15 12:02 350 3 gusting 2 28.9
2019-Sep-15 11:57 351 2 gusting 2 28.9
2019-Sep-15 11:52 350 0 gusting 3 28.9
2019-Sep-15 11:47 130 28.3
2019-Sep-15 11:42 130 1 gusting 2 28.3
2019-Sep-15 11:37 138 28.3
2019-Sep-15 11:32 103 0 gusting 6 28.3
2019-Sep-15 11:27 103 0 gusting 6 28.3
2019-Sep-15 11:22 139 1 gusting 5 28.3
2019-Sep-15 11:17 139 2 gusting 5 28.3
2019-Sep-15 11:12 009 28.3
2019-Sep-15 11:07 005 2 gusting 4 28.3
2019-Sep-15 10:57 017 2 gusting 4 28.3
2019-Sep-15 10:52 025 28.3
2019-Sep-15 10:47 086 27.8
2019-Sep-15 10:42 089 27.8
2019-Sep-15 10:37 119 0 gusting 7 27.8
2019-Sep-15 10:32 013 1 gusting 6 27.8
2019-Sep-15 10:27 023 1 gusting 6 27.8
2019-Sep-15 10:22 011 1 gusting 6 27.8
2019-Sep-15 10:17 024 2 gusting 6 27.8
2019-Sep-15 10:12 009 0 gusting 6 27.8
2019-Sep-15 10:07 022 0 gusting 6 27.8
2019-Sep-15 10:02 109 27.8
2019-Sep-15 09:57 091 1 gusting 5 27.2
2019-Sep-15 09:52 101 27.2
2019-Sep-15 09:47 098 2 gusting 5 27.8
2019-Sep-15 09:42 107 0 gusting 5 27.8
2019-Sep-15 09:37 113 1 gusting 5 27.8
2019-Sep-15 09:32 075 0 gusting 6 27.2
2019-Sep-15 09:27 138 27.2
2019-Sep-15 09:22 124 0 gusting 4 26.7
2019-Sep-15 09:17 124 1 gusting 4 26.7
2019-Sep-15 09:12 148 3 gusting 3 26.1
2019-Sep-15 09:07 153 0 gusting 3 25.6
2019-Sep-15 09:02 093 25.6
2019-Sep-15 08:57 121 1 gusting 2 25.0
2019-Sep-15 08:52 119 25.0
2019-Sep-15 08:47 119 0 gusting 1 24.4
2019-Sep-15 08:42 119 23.9
2019-Sep-15 08:37 119 1 gusting 2 23.9
2019-Sep-15 08:32 119 23.3
2019-Sep-15 08:27 119 0 gusting 2 22.8
2019-Sep-15 08:22 011 22.2
2019-Sep-15 08:17 011 1 gusting 2 22.2
2019-Sep-15 08:12 011 21.7
2019-Sep-15 08:07 011 21.7
2019-Sep-15 08:02 011 1 gusting 2 21.1
2019-Sep-15 07:57 011 21.1
2019-Sep-15 07:52 011 21.1
2019-Sep-15 07:47 012 1 gusting 2 20.6
2019-Sep-15 07:42 114 20.6
2019-Sep-15 07:37 114 0 gusting 2 20.0
2019-Sep-15 07:32 114 1 20.0
2019-Sep-15 07:27 114 20.0
2019-Sep-15 07:22 114 20.0
2019-Sep-15 07:17 114 19.4
2019-Sep-15 07:12 114 18.9
2019-Sep-15 07:07 114 18.3
2019-Sep-15 07:02 114 17.8
2019-Sep-15 06:57 114 17.2
2019-Sep-15 06:52 114 2 gusting 3 17.2
2019-Sep-15 06:47 114 1 gusting 3 16.7
2019-Sep-15 06:42 140 3 gusting 4 16.7
2019-Sep-15 06:37 146 1 gusting 4 16.7
2019-Sep-15 06:32 146 0 gusting 3 16.7
2019-Sep-15 06:27 146 3 gusting 3 16.1
2019-Sep-15 06:22 119 1 gusting 4 16.1
2019-Sep-15 06:17 115 15.6
2019-Sep-15 06:12 114 2 15.6
2019-Sep-15 06:07 111 15.6
2019-Sep-15 06:02 120 15.6
2019-Sep-15 05:57 159 15.6
2019-Sep-15 05:52 159 15.6
2019-Sep-15 05:47 159 15.6
2019-Sep-15 05:42 159 15.0
2019-Sep-15 05:37 158 15.0
2019-Sep-15 05:32 135 15.0
2019-Sep-15 05:27 134 15.0
2019-Sep-15 05:22 134 15.0
2019-Sep-15 05:17 134 15.0
2019-Sep-15 05:12 135 15.0
2019-Sep-15 05:07 135 15.0
2019-Sep-15 05:02 135 15.0
2019-Sep-15 04:57 135 15.0
2019-Sep-15 04:52 135 15.0
2019-Sep-15 04:47 134 15.0
2019-Sep-15 04:42 134 15.0
2019-Sep-15 04:37 134 15.0
2019-Sep-15 04:32 135 15.0
2019-Sep-15 04:27 135 15.0
2019-Sep-15 04:22 135 15.0
2019-Sep-15 04:17 135 15.0
2019-Sep-15 04:12 135 15.0
2019-Sep-15 04:07 135 15.0
2019-Sep-15 04:02 135 15.0
2019-Sep-15 03:57 135 15.6
2019-Sep-15 03:52 135 15.6
2019-Sep-15 03:47 135 15.6
2019-Sep-15 03:42 135 15.6
2019-Sep-15 03:37 135 15.6
2019-Sep-15 03:32 135 15.6
2019-Sep-15 03:27 135 15.6
2019-Sep-15 03:22 135 15.6
2019-Sep-15 03:17 135 15.6
2019-Sep-15 03:12 135 15.6
2019-Sep-15 03:07 135 15.6
2019-Sep-15 03:02 135 15.6
2019-Sep-15 02:57 135 16.1
2019-Sep-15 02:52 135 16.1
2019-Sep-15 02:47 135 16.1
2019-Sep-15 02:42 135 16.1
2019-Sep-15 02:37 135 16.1
2019-Sep-15 02:32 135 16.1
2019-Sep-15 02:27 135 16.1
2019-Sep-15 02:22 135 16.1
2019-Sep-15 02:17 135 16.1
2019-Sep-15 02:12 135 16.1
2019-Sep-15 02:07 135 16.1
2019-Sep-15 02:02 135 16.1
2019-Sep-15 01:57 135 1 gusting 2 16.1
2019-Sep-15 01:52 135 0 16.1
2019-Sep-15 01:47 135 1 16.7
2019-Sep-15 01:42 135 1 gusting 1 16.7
2019-Sep-15 01:37 135 16.7
2019-Sep-15 01:32 135 16.7
2019-Sep-15 01:27 135 17.2
2019-Sep-15 01:22 135 17.2
2019-Sep-15 01:17 135 0 17.2
2019-Sep-15 01:12 135 17.2
2019-Sep-15 01:07 135 17.2
2019-Sep-15 01:02 135 17.2
2019-Sep-15 00:57 135 17.2
2019-Sep-15 00:52 135 17.2
2019-Sep-15 00:47 135 17.2
2019-Sep-15 00:42 135 0 gusting 3 17.2
2019-Sep-15 00:37 097 17.2
2019-Sep-15 00:32 111 2 17.2
2019-Sep-15 00:27 146 0 17.8
2019-Sep-15 00:22 146 17.8
2019-Sep-15 00:17 146 18.3
2019-Sep-15 00:12 146 18.9
2019-Sep-15 00:07 146 18.9
2019-Sep-15 00:02 146 18.9
2019-Sep-14 23:57 145 1 gusting 6 18.9
2019-Sep-14 23:52 151 4 gusting 5 18.9
2019-Sep-14 23:47 142 5 gusting 5 18.9
2019-Sep-14 23:42 160 6 gusting 6 18.9
2019-Sep-14 23:37 141 2 gusting 6 18.9
2019-Sep-14 23:32 147 5 gusting 5 18.9
2019-Sep-14 23:27 148 2 gusting 5 18.3
2019-Sep-14 23:22 152 4 gusting 3 18.3
2019-Sep-14 23:17 155 3 gusting 3 18.3
2019-Sep-14 23:12 153 3 gusting 5 18.3
2019-Sep-14 23:07 153 1 gusting 5 18.3
2019-Sep-14 23:02 153 1 gusting 4 18.3
2019-Sep-14 22:57 153 3 gusting 4 18.9
2019-Sep-14 22:52 152 2 gusting 3 18.9
2019-Sep-14 22:47 152 2 gusting 3 19.4
2019-Sep-14 22:42 152 2 gusting 2 19.4
2019-Sep-14 22:37 152 1 gusting 2 19.4
2019-Sep-14 22:32 155 2 gusting 4 18.9
2019-Sep-14 22:27 156 0 gusting 4 18.9
2019-Sep-14 22:22 156 1 gusting 2 18.9
2019-Sep-14 22:17 349 1 gusting 2 18.9
2019-Sep-14 22:12 349 1 18.9
2019-Sep-14 22:07 349 19.4
2019-Sep-14 22:02 349 19.4